Location: ???????
(55.5931°N, 39.3286°E)
Time: 17:46:10
(UTC+00:00)

MSX - Pass Details

Date: 14 April 2024
Orbit: 894 x 905 km, 99.0° (Epoch: 24 May)

Event Time Altitude Azimuth Distance (km) Brightness Sun altitude
Rises 00:19:32 0° 15° (NNE) 3,547 8.0 -15.3°
Reaches altitude 10° 00:22:00 10° 11° (N) 2,601 7.1 -15.0°
Maximum altitude 00:27:37 53° 297° (WNW) 1,105 4.2 -14.5°
Enters shadow 00:31:28 20° 228° (SW) 1,958 4.9 -14.0°
